Time,TemperatureF,DewpointF,PressureIn,WindDirection,WindDirectionDegrees,WindSpeedMPH,WindSpeedGustMPH,Humidity,HourlyPrecipIn,Conditions,Clouds,dailyrainin,SoftwareType,DateUTC
2013-02-07 00:02:00,35.0,33.0,-100.00,SE,145,6.0,-999.0,90,0.00,,,-99.99,,2013-02-07 06:02:00,
2013-02-07 00:11:00,36.0,33.0,-100.00,SE,145,6.0,9.0,90,0.00,,,-99.99,,2013-02-07 06:11:00,
2013-02-07 00:22:00,36.0,33.0,-100.00,SSE,150,6.0,11.0,89,0.00,,,-99.99,,2013-02-07 06:22:00,
2013-02-07 00:32:00,36.0,33.0,-100.00,SSE,150,7.0,11.0,88,0.00,,,-99.99,,2013-02-07 06:32:00,
2013-02-07 00:43:00,36.0,33.0,-100.00,SE,145,7.0,11.0,87,0.00,,,-99.99,,2013-02-07 06:43:00,
2013-02-07 00:52:00,35.0,32.0,-100.00,SE,140,7.0,10.0,87,0.00,,,-99.99,,2013-02-07 06:52:00,
2013-02-07 01:01:00,36.0,32.0,-100.00,SE,145,4.0,10.0,87,0.00,,,-99.99,,2013-02-07 07:01:00,
2013-02-07 01:11:00,35.0,32.0,-100.00,SSE,165,4.0,7.0,87,0.00,,,-99.99,,2013-02-07 07:11:00,
2013-02-07 01:22:00,35.0,32.0,-100.00,SSE,160,5.0,7.0,87,0.00,,,-99.99,,2013-02-07 07:22:00,
2013-02-07 01:32:00,35.0,32.0,-100.00,SE,140,4.0,8.0,88,0.00,,,-99.99,,2013-02-07 07:32:00,
2013-02-07 01:42:00,35.0,32.0,-100.00,SSE,160,4.0,7.0,88,0.06,,,-99.99,,2013-02-07 07:42:00,
2013-02-07 01:52:00,35.0,32.0,-100.00,SE,130,5.0,9.0,88,0.01,,,-99.99,,2013-02-07 07:52:00,
2013-02-07 02:01:00,35.0,32.0,-100.00,SE,130,5.0,9.0,88,0.01,,,-99.99,,2013-02-07 08:01:00,
2013-02-07 02:11:00,36.0,32.0,-100.00,SE,145,6.0,10.0,87,0.00,,,-99.99,,2013-02-07 08:11:00,
2013-02-07 02:21:00,36.0,32.0,-100.00,SE,135,4.0,9.0,87,0.00,,,-99.99,,2013-02-07 08:21:00,
2013-02-07 02:32:00,35.0,32.0,-100.00,ESE,120,4.0,7.0,87,0.00,,,-99.99,,2013-02-07 08:32:00,
2013-02-07 02:42:00,35.0,32.0,-100.00,SE,130,4.0,7.0,87,0.00,,,-99.99,,2013-02-07 08:42:00,
2013-02-07 02:52:00,35.0,32.0,-100.00,SE,130,4.0,7.0,87,0.00,,,-99.99,,2013-02-07 08:52:00,
2013-02-07 03:01:00,35.0,32.0,-100.00,SE,125,2.0,6.0,87,0.00,,,-99.99,,2013-02-07 09:01:00,
2013-02-07 03:11:00,35.0,32.0,-100.00,ESE,115,2.0,5.0,87,0.00,,,-99.99,,2013-02-07 09:11:00,
2013-02-07 03:21:00,35.0,31.0,-100.00,East,85,2.0,4.0,88,0.00,,,-99.99,,2013-02-07 09:21:00,
2013-02-07 03:32:00,34.0,31.0,-100.00,East,80,2.0,4.0,89,0.00,,,-99.99,,2013-02-07 09:32:00,
2013-02-07 03:41:00,34.0,31.0,-100.00,ENE,70,2.0,3.0,89,0.00,,,-99.99,,2013-02-07 09:41:00,
2013-02-07 03:51:00,34.0,31.0,-100.00,East,100,2.0,3.0,90,0.00,,,-99.99,,2013-02-07 09:51:00,
2013-02-07 04:01:00,34.0,31.0,-100.00,East,100,3.0,5.0,90,0.00,,,-99.99,,2013-02-07 10:01:00,
2013-02-07 04:11:00,34.0,31.0,-100.00,ESE,105,2.0,4.0,90,0.00,,,-99.99,,2013-02-07 10:11:00,
2013-02-07 04:22:00,34.0,31.0,-100.00,ESE,120,2.0,4.0,90,0.00,,,-99.99,,2013-02-07 10:22:00,
2013-02-07 04:32:00,34.0,31.0,-100.00,ENE,65,2.0,4.0,91,0.00,,,-99.99,,2013-02-07 10:32:00,
2013-02-07 04:42:00,34.0,31.0,-100.00,ENE,75,1.0,4.0,91,0.00,,,-99.99,,2013-02-07 10:42:00,
2013-02-07 04:51:00,33.0,31.0,-100.00,ENE,70,2.0,4.0,91,0.00,,,-99.99,,2013-02-07 10:51:00,
2013-02-07 05:01:00,33.0,31.0,-100.00,ENE,70,2.0,4.0,91,0.00,,,-99.99,,2013-02-07 11:01:00,
2013-02-07 05:11:00,33.0,31.0,-100.00,East,90,1.0,3.0,92,0.00,,,-99.99,,2013-02-07 11:11:00,
2013-02-07 05:22:00,33.0,31.0,-100.00,East,85,1.0,3.0,92,0.00,,,-99.99,,2013-02-07 11:22:00,
2013-02-07 05:32:00,33.0,31.0,-100.00,East,85,1.0,3.0,92,0.00,,,-99.99,,2013-02-07 11:32:00,
2013-02-07 05:44:00,33.0,31.0,-100.00,East,90,2.0,3.0,92,0.00,,,-99.99,,2013-02-07 11:44:00,
2013-02-07 05:52:00,33.0,31.0,-100.00,ENE,65,1.0,4.0,93,0.00,,,-99.99,,2013-02-07 11:52:00,
2013-02-07 06:02:00,33.0,31.0,-100.00,NE,50,1.0,3.0,93,0.00,,,-99.99,,2013-02-07 12:02:00,
2013-02-07 06:11:00,33.0,31.0,-100.00,East,90,2.0,3.0,93,0.00,,,-99.99,,2013-02-07 12:11:00,
2013-02-07 06:22:00,33.0,31.0,-100.00,East,90,1.0,3.0,93,0.00,,,-99.99,,2013-02-07 12:22:00,
2013-02-07 06:32:00,33.0,31.0,-100.00,ENE,75,2.0,3.0,93,0.00,,,-99.99,,2013-02-07 12:32:00,
2013-02-07 06:42:00,33.0,31.0,-100.00,ENE,65,1.0,2.0,93,0.00,,,-99.99,,2013-02-07 12:42:00,
2013-02-07 06:52:00,33.0,31.0,-100.00,ENE,60,2.0,4.0,93,0.00,,,-99.99,,2013-02-07 12:52:00,
2013-02-07 07:02:00,33.0,31.0,-100.00,NE,55,2.0,3.0,93,0.00,,,-99.99,,2013-02-07 13:02:00,
2013-02-07 07:12:00,33.0,32.0,-100.00,ENE,60,3.0,4.0,94,0.00,,,-99.99,,2013-02-07 13:12:00,
2013-02-07 07:22:00,33.0,32.0,-100.00,NE,45,3.0,4.0,94,0.00,,,-99.99,,2013-02-07 13:22:00,
2013-02-07 07:32:00,33.0,32.0,-100.00,NNE,20,2.0,4.0,94,0.00,,,-99.99,,2013-02-07 13:32:00,
2013-02-07 07:42:00,33.0,31.0,-100.00,NNE,25,2.0,4.0,94,0.00,,,-99.99,,2013-02-07 13:42:00,
2013-02-07 07:51:00,33.0,31.0,-100.00,NNE,20,1.0,3.0,94,0.00,,,-99.99,,2013-02-07 13:51:00,
2013-02-07 08:01:00,33.0,31.0,-100.00,NE,45,2.0,3.0,94,0.00,,,-99.99,,2013-02-07 14:01:00,
2013-02-07 08:11:00,33.0,31.0,-100.00,NNE,15,2.0,3.0,94,0.00,,,-99.99,,2013-02-07 14:11:00,
2013-02-07 08:21:00,33.0,32.0,-100.00,NE,40,2.0,4.0,94,0.00,,,-99.99,,2013-02-07 14:21:00,
2013-02-07 08:32:00,34.0,32.0,-100.00,North,10,2.0,4.0,94,0.00,,,-99.99,,2013-02-07 14:32:00,
2013-02-07 08:42:00,34.0,32.0,-100.00,North,10,4.0,6.0,94,0.00,,,-99.99,,2013-02-07 14:42:00,
2013-02-07 08:52:00,34.0,32.0,-100.00,North,10,4.0,6.0,94,0.00,,,-99.99,,2013-02-07 14:52:00,
2013-02-07 09:02:00,34.0,33.0,-100.00,North,10,2.0,4.0,94,0.00,,,-99.99,,2013-02-07 15:02:00,
2013-02-07 09:11:00,34.0,33.0,-100.00,NE,35,2.0,4.0,94,0.00,,,-99.99,,2013-02-07 15:11:00,
2013-02-07 09:22:00,34.0,33.0,-100.00,NNE,15,3.0,4.0,94,0.00,,,-99.99,,2013-02-07 15:22:00,
2013-02-07 09:32:00,34.0,32.0,-100.00,North,10,4.0,6.0,93,0.00,,,-99.99,,2013-02-07 15:32:00,
2013-02-07 09:42:00,34.0,33.0,-100.00,NNE,15,3.0,4.0,93,0.00,,,-99.99,,2013-02-07 15:42:00,
2013-02-07 09:52:00,34.0,33.0,-100.00,NE,35,2.0,6.0,93,0.00,,,-99.99,,2013-02-07 15:52:00,
2013-02-07 10:01:00,34.0,33.0,-100.00,NNE,25,2.0,6.0,93,0.00,,,-99.99,,2013-02-07 16:01:00,
2013-02-07 10:11:00,35.0,33.0,-100.00,NE,45,2.0,6.0,92,0.00,,,-99.99,,2013-02-07 16:11:00,
2013-02-07 10:21:00,35.0,33.0,-100.00,NE,40,3.0,6.0,92,0.00,,,-99.99,,2013-02-07 16:21:00,
2013-02-07 10:32:00,35.0,33.0,-100.00,NNE,30,3.0,5.0,92,0.00,,,-99.99,,2013-02-07 16:32:00,
2013-02-07 10:42:00,35.0,33.0,-100.00,NE,40,3.0,5.0,92,0.00,,,-99.99,,2013-02-07 16:42:00,
2013-02-07 10:52:00,35.0,33.0,-100.00,NE,45,4.0,7.0,92,0.00,,,-99.99,,2013-02-07 16:52:00,
2013-02-07 11:01:00,35.0,33.0,-100.00,North,0,5.0,7.0,92,0.00,,,-99.99,,2013-02-07 17:01:00,
2013-02-07 11:11:00,35.0,33.0,-100.00,North,0,6.0,9.0,91,0.00,,,-99.99,,2013-02-07 17:11:00,
2013-02-07 11:21:00,35.0,33.0,-100.00,North,0,4.0,9.0,91,0.00,,,-99.99,,2013-02-07 17:21:00,
2013-02-07 11:32:00,35.0,33.0,-100.00,North,0,7.0,9.0,91,0.00,,,-99.99,,2013-02-07 17:32:00,
2013-02-07 11:43:00,35.0,33.0,-100.00,North,0,5.0,9.0,92,0.00,,,-99.99,,2013-02-07 17:43:00,
2013-02-07 11:52:00,35.0,33.0,-100.00,North,0,6.0,9.0,92,0.00,,,-99.99,,2013-02-07 17:52:00,
2013-02-07 12:01:00,34.0,32.0,-100.00,North,0,5.0,12.0,92,0.00,,,-99.99,,2013-02-07 18:01:00,
2013-02-07 12:11:00,33.0,31.0,-100.00,North,0,8.0,12.0,92,0.00,,,-99.99,,2013-02-07 18:11:00,
2013-02-07 12:23:00,33.0,31.0,-100.00,North,0,7.0,14.0,92,0.00,,,-99.99,,2013-02-07 18:23:00,
2013-02-07 12:32:00,33.0,31.0,-100.00,North,0,8.0,13.0,92,0.00,,,-99.99,,2013-02-07 18:32:00,
2013-02-07 12:42:00,33.0,31.0,-100.00,North,0,9.0,17.0,91,0.00,,,-99.99,,2013-02-07 18:42:00,
2013-02-07 12:51:00,33.0,31.0,-100.00,North,5,6.0,12.0,91,0.00,,,-99.99,,2013-02-07 18:51:00,
2013-02-07 13:01:00,33.0,30.0,-100.00,North,0,8.0,16.0,91,0.00,,,-99.99,,2013-02-07 19:01:00,
2013-02-07 13:11:00,33.0,30.0,-100.00,North,0,7.0,14.0,91,0.00,,,-99.99,,2013-02-07 19:11:00,
2013-02-07 13:22:00,33.0,30.0,-100.00,North,0,5.0,15.0,90,0.00,,,-99.99,,2013-02-07 19:22:00,
2013-02-07 13:32:00,32.0,30.0,-100.00,North,0,6.0,12.0,90,0.00,,,-99.99,,2013-02-07 19:32:00,
2013-02-07 13:42:00,32.0,30.0,-100.00,North,0,5.0,14.0,90,0.00,,,-99.99,,2013-02-07 19:42:00,
2013-02-07 13:51:00,31.0,29.0,-100.00,North,0,11.0,16.0,90,0.00,,,-99.99,,2013-02-07 19:51:00,
2013-02-07 14:01:00,31.0,29.0,-100.00,North,5,7.0,15.0,90,0.00,,,-99.99,,2013-02-07 20:01:00,
2013-02-07 14:11:00,31.0,29.0,-100.00,NNW,335,9.0,16.0,90,0.00,,,-99.99,,2013-02-07 20:11:00,
2013-02-07 14:21:00,31.0,28.0,-100.00,North,0,7.0,16.0,90,0.00,,,-99.99,,2013-02-07 20:21:00,
2013-02-07 14:31:00,30.0,28.0,-100.00,North,0,9.0,18.0,91,0.00,,,-99.99,,2013-02-07 20:31:00,
2013-02-07 14:42:00,30.0,28.0,-100.00,North,0,7.0,16.0,93,0.00,,,-99.99,,2013-02-07 20:42:00,
2013-02-07 14:52:00,29.0,28.0,-100.00,NNW,330,11.0,19.0,94,0.00,,,-99.99,,2013-02-07 20:52:00,
2013-02-07 15:02:00,29.0,28.0,-100.00,North,350,7.0,16.0,94,0.00,,,-99.99,,2013-02-07 21:02:00,
2013-02-07 15:11:00,29.0,28.0,-100.00,North,0,7.0,19.0,94,0.00,,,-99.99,,2013-02-07 21:11:00,
2013-02-07 15:21:00,29.0,28.0,-100.00,North,10,8.0,17.0,94,0.00,,,-99.99,,2013-02-07 21:21:00,
2013-02-07 15:32:00,29.0,28.0,-100.00,NNW,345,8.0,15.0,94,0.00,,,-99.99,,2013-02-07 21:32:00,
2013-02-07 15:42:00,29.0,28.0,-100.00,NNW,345,8.0,15.0,94,0.00,,,-99.99,,2013-02-07 21:42:00,
2013-02-07 15:51:00,29.0,27.0,-100.00,North,5,9.0,16.0,94,0.00,,,-99.99,,2013-02-07 21:51:00,
2013-02-07 16:02:00,29.0,27.0,-100.00,North,355,9.0,18.0,94,0.00,,,-99.99,,2013-02-07 22:02:00,
2013-02-07 16:11:00,28.0,27.0,-100.00,North,0,9.0,17.0,94,0.00,,,-99.99,,2013-02-07 22:11:00,
2013-02-07 16:21:00,28.0,27.0,-100.00,North,0,10.0,17.0,94,0.00,,,-99.99,,2013-02-07 22:21:00,
2013-02-07 16:32:00,28.0,27.0,-100.00,NNW,345,9.0,17.0,94,0.00,,,-99.99,,2013-02-07 22:32:00,
2013-02-07 16:42:00,28.0,27.0,-100.00,North,355,7.0,14.0,93,0.00,,,-99.99,,2013-02-07 22:42:00,
2013-02-07 16:51:00,28.0,27.0,-100.00,North,0,8.0,15.0,93,0.00,,,-99.99,,2013-02-07 22:51:00,
2013-02-07 17:01:00,28.0,26.0,-100.00,North,0,9.0,19.0,93,0.00,,,-99.99,,2013-02-07 23:01:00,
2013-02-07 17:11:00,28.0,26.0,-100.00,North,0,9.0,16.0,92,0.00,,,-99.99,,2013-02-07 23:11:00,
2013-02-07 17:21:00,28.0,26.0,-100.00,North,355,9.0,19.0,92,0.00,,,-99.99,,2013-02-07 23:21:00,
2013-02-07 17:32:00,28.0,26.0,-100.00,NNW,345,9.0,20.0,92,0.00,,,-99.99,,2013-02-07 23:32:00,
2013-02-07 17:42:00,28.0,26.0,-100.00,North,0,12.0,19.0,92,0.00,,,-99.99,,2013-02-07 23:42:00,
2013-02-07 17:52:00,28.0,26.0,-100.00,North,5,7.0,19.0,91,0.00,,,-99.99,,2013-02-07 23:52:00,
2013-02-07 18:01:00,28.0,26.0,-100.00,North,0,11.0,17.0,91,0.00,,,-99.99,,2013-02-08 00:01:00,
2013-02-07 18:11:00,28.0,26.0,-100.00,North,0,7.0,17.0,92,0.00,,,-99.99,,2013-02-08 00:11:00,
2013-02-07 18:21:00,27.0,26.0,-100.00,NNW,340,9.0,18.0,92,0.00,,,-99.99,,2013-02-08 00:21:00,
2013-02-07 18:32:00,27.0,25.0,-100.00,North,0,9.0,21.0,91,0.00,,,-99.99,,2013-02-08 00:32:00,
2013-02-07 18:42:00,27.0,25.0,-100.00,North,355,10.0,16.0,92,0.00,,,-99.99,,2013-02-08 00:42:00,
2013-02-07 18:52:00,27.0,25.0,-100.00,North,0,7.0,17.0,92,0.00,,,-99.99,,2013-02-08 00:52:00,
2013-02-07 19:01:00,27.0,25.0,-100.00,North,0,9.0,18.0,92,0.00,,,-99.99,,2013-02-08 01:01:00,
2013-02-07 19:11:00,27.0,25.0,-100.00,North,0,9.0,18.0,92,0.00,,,-99.99,,2013-02-08 01:11:00,
2013-02-07 19:21:00,27.0,25.0,-100.00,North,0,10.0,17.0,92,0.00,,,-99.99,,2013-02-08 01:21:00,
2013-02-07 19:31:00,27.0,25.0,-100.00,North,0,9.0,16.0,92,0.00,,,-99.99,,2013-02-08 01:31:00,
2013-02-07 19:41:00,27.0,25.0,-100.00,North,0,9.0,16.0,92,0.00,,,-99.99,,2013-02-08 01:41:00,
2013-02-07 19:52:00,27.0,25.0,-100.00,North,0,7.0,20.0,92,0.00,,,-99.99,,2013-02-08 01:52:00,
2013-02-07 20:01:00,26.0,24.0,-100.00,NNW,345,9.0,19.0,92,0.00,,,-99.99,,2013-02-08 02:01:00,
2013-02-07 20:11:00,26.0,24.0,-100.00,North,350,9.0,20.0,91,0.00,,,-99.99,,2013-02-08 02:11:00,
2013-02-07 20:21:00,26.0,24.0,-100.00,North,0,11.0,20.0,91,0.00,,,-99.99,,2013-02-08 02:21:00,
2013-02-07 20:32:00,26.0,24.0,-100.00,North,0,11.0,20.0,91,0.00,,,-99.99,,2013-02-08 02:32:00,
2013-02-07 20:42:00,26.0,24.0,-100.00,North,355,10.0,18.0,91,0.00,,,-99.99,,2013-02-08 02:42:00,
2013-02-07 20:52:00,26.0,24.0,-100.00,North,0,9.0,17.0,91,0.00,,,-99.99,,2013-02-08 02:52:00,
2013-02-07 21:01:00,26.0,24.0,-100.00,North,0,7.0,15.0,91,0.00,,,-99.99,,2013-02-08 03:01:00,
2013-02-07 21:12:00,26.0,24.0,-100.00,North,5,9.0,19.0,91,0.00,,,-99.99,,2013-02-08 03:12:00,
2013-02-07 21:22:00,26.0,24.0,-100.00,North,0,8.0,15.0,91,0.00,,,-99.99,,2013-02-08 03:22:00,
2013-02-07 21:32:00,26.0,24.0,-100.00,North,0,10.0,16.0,91,0.00,,,-99.99,,2013-02-08 03:32:00,
2013-02-07 21:41:00,26.0,24.0,-100.00,North,0,9.0,17.0,91,0.00,,,-99.99,,2013-02-08 03:41:00,
2013-02-07 21:51:00,26.0,24.0,-100.00,North,0,9.0,19.0,90,0.00,,,-99.99,,2013-02-08 03:51:00,
2013-02-07 22:01:00,26.0,23.0,-100.00,North,5,9.0,19.0,89,0.00,,,-99.99,,2013-02-08 04:01:00,
2013-02-07 22:11:00,26.0,23.0,-100.00,North,0,9.0,17.0,88,0.00,,,-99.99,,2013-02-08 04:11:00,
2013-02-07 22:21:00,26.0,23.0,-100.00,North,0,12.0,20.0,87,0.00,,,-99.99,,2013-02-08 04:21:00,
2013-02-07 22:32:00,26.0,23.0,-100.00,North,0,10.0,17.0,87,0.00,,,-99.99,,2013-02-08 04:32:00,
2013-02-07 22:42:00,26.0,23.0,-100.00,North,0,11.0,19.0,87,0.00,,,-99.99,,2013-02-08 04:42:00,
2013-02-07 22:51:00,26.0,23.0,-100.00,North,0,8.0,16.0,87,0.00,,,-99.99,,2013-02-08 04:51:00,
2013-02-07 23:02:00,26.0,22.0,-100.00,North,0,10.0,19.0,87,0.00,,,-99.99,,2013-02-08 05:02:00,
2013-02-07 23:11:00,26.0,23.0,-100.00,North,10,8.0,17.0,87,0.00,,,-99.99,,2013-02-08 05:11:00,
2013-02-07 23:22:00,26.0,22.0,-100.00,North,0,10.0,16.0,86,0.00,,,-99.99,,2013-02-08 05:22:00,
2013-02-07 23:32:00,26.0,22.0,-100.00,North,0,10.0,17.0,86,0.00,,,-99.99,,2013-02-08 05:32:00,
2013-02-07 23:42:00,26.0,22.0,-100.00,North,0,10.0,17.0,86,0.00,,,-99.99,,2013-02-08 05:42:00,
2013-02-07 23:52:00,26.0,22.0,-100.00,North,0,10.0,17.0,86,0.00,,,-99.99,,2013-02-08 05:52:00,